Terminal Aerodrome Forecast
Issued by NWS Springfield, MO

Home | Current Version | Previous Version | Text Only | Print | Product List | Glossary On
Versions: 1 2 3 4 5 6 7 8 9 10 11 12
000
FTUS43 KSGF 221700
TAFSGF
TAF
KSGF 221720Z 2218/2318 22012G20KT P6SM FEW080 SCT250
     FM230100 17008KT P6SM FEW250
     FM231400 22010G15KT P6SM SKC=

USA.gov is the U.S. government's official web portal to all federal, state and local government web resources and services.